Location: Crescent
(42.8242°N, 73.7329°W)
Time: 06:04:23
(UTC+00:00)

A-11 Canister half - Pass Details

Date: 19 February 2026
Orbit: 1524 x 1683 km, 47.3° (Epoch: 14 March)

Event Time Altitude Azimuth Distance (km) Brightness Sun altitude
Rises 03:10:07 0° 295° (WNW) 4,677 12.2 -49.3°
Reaches altitude 10° 03:13:11 10° 292° (WNW) 3,695 11.4 -49.7°
Enters shadow 03:17:16 30° 283° (WNW) 2,498 10.3 -50.3°
